| time (UTC) | temp F | wind direction | speed MPH | gust MPH | rain 1hr in | rain 24hr in | rain mn in | humidity % | barometer mb |
| 20260507095213 | 58 | 313 | 4.0 | 10.0 | 0.00 | 0.00 | 0.00 | 61 | 1016.3 |
| 20260507094719 | 58 | 290 | 4.0 | 10.0 | 0.00 | 0.00 | 0.00 | 60 | 1016.3 |
| 20260507094233 | 58 | 324 | 3.0 | 10.0 | 0.00 | 0.00 | 0.00 | 60 | 1016.3 |
| 20260507093707 | 58 | 355 | 3.0 | 8.0 | 0.00 | 0.00 | 0.00 | 60 | 1016.2 |
| 20260507092719 | 58 | 315 | 3.0 | 9.0 | 0.00 | 0.00 | 0.00 | 61 | 1016.2 |
| 20260507092219 | 58 | 28 | 3.0 | 9.0 | 0.00 | 0.00 | 0.00 | 61 | 1016.1 |
| 20260507091707 | 58 | 321 | 3.0 | 9.0 | 0.00 | 0.00 | 0.00 | 61 | 1016.1 |
| 20260507090718 | 58 | 355 | 4.0 | 9.0 | 0.00 | 0.00 | 0.00 | 60 | 1016.0 |
| 20260507090216 | 58 | 293 | 3.0 | 9.0 | 0.00 | 0.00 | 0.00 | 59 | 1016.0 |
| 20260507085717 | 57 | 301 | 2.0 | 6.0 | 0.00 | 0.00 | 0.00 | 61 | 1015.9 |
| 20260507085212 | 57 | 28 | 2.0 | 9.0 | 0.00 | 0.00 | 0.00 | 61 | 1015.9 |
| 20260507084708 | 58 | 22 | 2.0 | 9.0 | 0.00 | 0.00 | 0.00 | 58 | 1016.0 |
| 20260507084213 | 58 | 68 | 3.0 | 9.0 | 0.00 | 0.00 | 0.00 | 54 | 1015.9 |
| 20260507083707 | 58 | 75 | 3.0 | 9.0 | 0.00 | 0.00 | 0.00 | 55 | 1016.0 |
| 20260507083206 | 58 | 86 | 3.0 | 9.0 | 0.00 | 0.00 | 0.00 | 56 | 1015.9 |
| 20260507082220 | 58 | 67 | 2.0 | 5.0 | 0.00 | 0.00 | 0.00 | 57 | 1015.9 |
| 20260507081715 | 56 | 69 | 1.0 | 5.0 | 0.00 | 0.00 | 0.00 | 59 | 1016.0 |
| 20260507081206 | 56 | 340 | 2.0 | 5.0 | 0.00 | 0.00 | 0.00 | 60 | 1016.0 |
| 20260507080212 | 56 | 71 | 1.0 | 7.0 | 0.00 | 0.00 | 0.00 | 60 | 1015.9 |
| 20260507075713 | 57 | 114 | 2.0 | 7.0 | 0.00 | 0.00 | 0.00 | 60 | 1015.8 |
| 20260507075216 | 56 | 82 | 2.0 | 8.0 | 0.00 | 0.00 | 0.00 | 60 | 1015.9 |
| 20260507074711 | 56 | 94 | 2.0 | 8.0 | 0.00 | 0.00 | 0.00 | 61 | 1015.8 |
| 20260507074207 | 56 | 80 | 2.0 | 7.0 | 0.00 | 0.00 | 0.00 | 61 | 1015.8 |
| 20260507073708 | 55 | 74 | 3.0 | 7.0 | 0.00 | 0.00 | 0.00 | 63 | 1015.8 |
| 20260507073209 | 54 | 110 | 3.0 | 9.0 | 0.00 | 0.00 | 0.00 | 63 | 1015.7 |
| 20260507072709 | 54 | 58 | 3.0 | 9.0 | 0.00 | 0.00 | 0.00 | 63 | 1015.8 |
| 20260507072210 | 54 | 32 | 2.0 | 8.0 | 0.00 | 0.00 | 0.00 | 64 | 1015.8 |
| 20260507071706 | 54 | 48 | 2.0 | 8.0 | 0.00 | 0.00 | 0.00 | 66 | 1015.8 |
| 20260507071217 | 53 | 0 | 3.0 | 8.0 | 0.00 | 0.00 | 0.00 | 64 | 1015.7 |
| 20260507070717 | 54 | 32 | 3.0 | 8.0 | 0.00 | 0.00 | 0.00 | 66 | 1015.8 |
| 20260507070219 | 54 | 65 | 3.0 | 8.0 | 0.00 | 0.00 | 0.00 | 68 | 1015.8 |
| 20260507065711 | 53 | 92 | 2.0 | 6.0 | 0.00 | 0.00 | 0.00 | 70 | 1015.7 |
| 20260507065214 | 53 | 58 | 2.0 | 5.0 | 0.00 | 0.00 | 0.00 | 70 | 1015.7 |
| 20260507064719 | 53 | 0 | 2.0 | 6.0 | 0.00 | 0.00 | 0.00 | 72 | 1015.7 |
| 20260507064216 | 53 | 94 | 2.0 | 6.0 | 0.00 | 0.00 | 0.00 | 71 | 1015.7 |
| 20260507063718 | 53 | 31 | 2.0 | 5.0 | 0.00 | 0.00 | 0.00 | 72 | 1015.7 |
| 20260507063213 | 52 | 44 | 2.0 | 5.0 | 0.00 | 0.00 | 0.00 | 73 | 1015.7 |
| 20260507062713 | 52 | 68 | 1.0 | 5.0 | 0.00 | 0.00 | 0.00 | 73 | 1015.7 |
| 20260507062213 | 52 | 75 | 2.0 | 5.0 | 0.00 | 0.00 | 0.00 | 73 | 1015.7 |
| 20260507061710 | 52 | 86 | 2.0 | 5.0 | 0.00 | 0.00 | 0.00 | 73 | 1015.7 |
| 20260507061207 | 51 | 65 | 2.0 | 5.0 | 0.00 | 0.00 | 0.00 | 73 | 1015.7 |
| 20260507060708 | 51 | 78 | 2.0 | 5.0 | 0.00 | 0.00 | 0.00 | 73 | 1015.7 |
| 20260507060206 | 51 | 86 | 1.0 | 5.0 | 0.00 | 0.00 | 0.00 | 74 | 1015.7 |
| 20260507055712 | 51 | 67 | 1.0 | 5.0 | 0.00 | 0.00 | 0.00 | 75 | 1015.7 |
| 20260507055211 | 50 | 38 | 1.0 | 5.0 | 0.00 | 0.00 | 0.00 | 75 | 1015.5 |
| 20260507054713 | 50 | 46 | 2.0 | 5.0 | 0.00 | 0.00 | 0.00 | 75 | 1015.5 |
| 20260507054213 | 49 | 65 | 2.0 | 5.0 | 0.00 | 0.00 | 0.00 | 76 | 1015.5 |
| 20260507053714 | 49 | 22 | 0.0 | 3.0 | 0.00 | 0.00 | 0.00 | 76 | 1015.4 |
| 20260507052719 | 49 | 350 | 0.0 | 3.0 | 0.00 | 0.00 | 0.00 | 78 | 1015.3 |
| 20260507052207 | 48 | 350 | 0.0 | 3.0 | 0.00 | 0.00 | 0.00 | 79 | 1015.3 |
| 20260507051211 | 47 | 350 | 1.0 | 4.0 | 0.00 | 0.00 | 0.00 | 80 | 1015.3 |
| 20260507050716 | 47 | 350 | 0.0 | 4.0 | 0.00 | 0.00 | 0.00 | 81 | 1015.2 |
| 20260507050212 | 47 | 350 | 0.0 | 4.0 | 0.00 | 0.00 | 0.00 | 82 | 1015.2 |
| 20260507045716 | 46 | 28 | 0.0 | 2.0 | 0.00 | 0.00 | 0.00 | 82 | 1015.1 |
| 20260507045216 | 46 | 66 | 0.0 | 2.0 | 0.00 | 0.00 | 0.00 | 83 | 1015.1 |
| 20260507044715 | 46 | 66 | 0.0 | 2.0 | 0.00 | 0.00 | 0.00 | 83 | 1015.0 |
| 20260507044216 | 46 | 66 | 0.0 | 2.0 | 0.00 | 0.00 | 0.00 | 83 | 1014.9 |
| 20260507043710 | 46 | 66 | 0.0 | 2.0 | 0.00 | 0.00 | 0.00 | 83 | 1014.9 |
| 20260507043212 | 46 | 66 | 0.0 | 2.0 | 0.00 | 0.00 | 0.00 | 83 | 1014.8 |
| 20260507042712 | 45 | 66 | 0.0 | 3.0 | 0.00 | 0.00 | 0.00 | 83 | 1014.8 |
| 20260507042216 | 45 | 66 | 0.0 | 3.0 | 0.00 | 0.00 | 0.00 | 83 | 1014.8 |
| 20260507041711 | 45 | 66 | 0.0 | 3.0 | 0.00 | 0.00 | 0.00 | 83 | 1014.8 |
| 20260507041209 | 45 | 66 | 1.0 | 3.0 | 0.00 | 0.00 | 0.00 | 83 | 1014.7 |
| 20260507040715 | 45 | 66 | 1.0 | 4.0 | 0.00 | 0.00 | 0.00 | 83 | 1014.7 |
| 20260507040213 | 45 | 66 | 1.0 | 4.0 | 0.00 | 0.00 | 0.00 | 83 | 1014.6 |
| 20260507035711 | 46 | 50 | 1.0 | 4.0 | 0.00 | 0.00 | 0.00 | 83 | 1014.6 |
| 20260507035207 | 46 | 63 | 1.0 | 3.0 | 0.00 | 0.00 | 0.00 | 83 | 1014.6 |
| 20260507034719 | 46 | 43 | 0.0 | 3.0 | 0.00 | 0.00 | 0.00 | 83 | 1014.6 |
| 20260507033711 | 46 | 43 | 0.0 | 4.0 | 0.00 | 0.00 | 0.00 | 83 | 1014.6 |
| 20260507033209 | 46 | 355 | 1.0 | 4.0 | 0.00 | 0.00 | 0.00 | 83 | 1014.6 |
| 20260507032715 | 46 | 355 | 1.0 | 4.0 | 0.00 | 0.00 | 0.00 | 83 | 1014.6 |
| 20260507032212 | 46 | 355 | 0.0 | 4.0 | 0.00 | 0.00 | 0.00 | 83 | 1014.6 |
| 20260507031707 | 46 | 355 | 1.0 | 4.0 | 0.00 | 0.00 | 0.00 | 83 | 1014.5 |
| 20260507031205 | 46 | 45 | 1.0 | 4.0 | 0.00 | 0.00 | 0.00 | 83 | 1014.5 |
| 20260507030709 | 46 | 46 | 1.0 | 5.0 | 0.00 | 0.00 | 0.00 | 83 | 1014.4 |
| 20260507030207 | 46 | 57 | 2.0 | 5.0 | 0.00 | 0.00 | 0.00 | 83 | 1014.4 |
| 20260507025711 | 46 | 44 | 2.0 | 5.0 | 0.00 | 0.00 | 0.00 | 83 | 1014.3 |
| 20260507025208 | 46 | 38 | 2.0 | 6.0 | 0.00 | 0.00 | 0.00 | 83 | 1014.4 |
| 20260507024719 | 46 | 51 | 2.0 | 6.0 | 0.00 | 0.00 | 0.00 | 83 | 1014.3 |
| 20260507024209 | 46 | 57 | 2.0 | 6.0 | 0.00 | 0.00 | 0.00 | 83 | 1014.3 |
| 20260507023716 | 46 | 58 | 1.0 | 5.0 | 0.00 | 0.00 | 0.00 | 83 | 1014.3 |
| 20260507023206 | 46 | 70 | 1.0 | 5.0 | 0.00 | 0.00 | 0.00 | 83 | 1014.3 |
| 20260507022710 | 46 | 40 | 1.0 | 5.0 | 0.00 | 0.00 | 0.00 | 83 | 1014.3 |
| 20260507022213 | 46 | 45 | 1.0 | 5.0 | 0.00 | 0.00 | 0.00 | 83 | 1014.2 |
| 20260507021713 | 46 | 43 | 1.0 | 5.0 | 0.00 | 0.00 | 0.00 | 83 | 1014.2 |
| 20260507015714 | 46 | 344 | 1.0 | 6.0 | 0.00 | 0.00 | 0.00 | 82 | 1014.0 |
| 20260507015217 | 47 | 31 | 1.0 | 5.0 | 0.00 | 0.00 | 0.00 | 82 | 1014.0 |
| 20260507014707 | 47 | 5 | 2.0 | 5.0 | 0.00 | 0.00 | 0.00 | 82 | 1014.0 |
| 20260507014208 | 47 | 5 | 1.0 | 6.0 | 0.00 | 0.00 | 0.00 | 82 | 1013.9 |
| 20260507013212 | 47 | 30 | 2.0 | 7.0 | 0.00 | 0.00 | 0.00 | 82 | 1013.9 |
| 20260507012211 | 47 | 51 | 2.0 | 7.0 | 0.00 | 0.00 | 0.00 | 82 | 1013.9 |
| 20260507011730 | 47 | 5 | 2.0 | 5.0 | 0.00 | 0.00 | 0.00 | 82 | 1013.9 |
| 20260507011217 | 47 | 24 | 2.0 | 8.0 | 0.00 | 0.00 | 0.00 | 82 | 1013.9 |
| 20260507010708 | 47 | 30 | 2.0 | 8.0 | 0.00 | 0.00 | 0.00 | 82 | 1013.9 |
| 20260507005217 | 47 | 22 | 1.0 | 5.0 | 0.00 | 0.00 | 0.00 | 82 | 1013.8 |
| 20260507004210 | 47 | 42 | 1.0 | 4.0 | 0.00 | 0.00 | 0.00 | 82 | 1013.8 |
| 20260507003716 | 48 | 49 | 1.0 | 5.0 | 0.00 | 0.00 | 0.00 | 82 | 1013.8 |
| 20260507003210 | 48 | 329 | 2.0 | 6.0 | 0.00 | 0.00 | 0.00 | 81 | 1013.9 |
| 20260507002720 | 48 | 23 | 2.0 | 6.0 | 0.00 | 0.00 | 0.00 | 82 | 1013.9 |
| 20260507002207 | 48 | 22 | 2.0 | 8.0 | 0.00 | 0.00 | 0.00 | 82 | 1013.7 |
| 20260507001739 | 48 | 36 | 2.0 | 8.0 | 0.00 | 0.00 | 0.00 | 82 | 1013.8 |
| 20260507001208 | 48 | 11 | 2.0 | 10.0 | 0.00 | 0.00 | 0.00 | 81 | 1013.7 |
| 20260507000741 | 48 | 60 | 3.0 | 10.0 | 0.00 | 0.00 | 0.00 | 81 | 1013.7 |
| 20260507000206 | 48 | 51 | 3.0 | 6.0 | 0.00 | 0.00 | 0.00 | 81 | 1013.7 |
| 20260506235714 | 48 | 45 | 2.0 | 6.0 | 0.00 | 0.00 | 0.00 | 81 | 1013.7 |
| 20260506235218 | 49 | 24 | 2.0 | 6.0 | 0.00 | 0.00 | 0.00 | 81 | 1013.6 |
| 20260506234206 | 49 | 338 | 2.0 | 8.0 | 0.00 | 0.00 | 0.00 | 80 | 1013.7 |
| 20260506233218 | 49 | 55 | 3.0 | 9.0 | 0.00 | 0.00 | 0.00 | 80 | 1013.6 |
| 20260506232707 | 49 | 26 | 3.0 | 9.0 | 0.00 | 0.00 | 0.00 | 79 | 1013.5 |
| 20260506231717 | 49 | 55 | 2.0 | 9.0 | 0.00 | 0.00 | 0.00 | 78 | 1013.5 |
| 20260506231214 | 49 | 45 | 3.0 | 9.0 | 0.00 | 0.00 | 0.00 | 78 | 1013.5 |
| 20260506230206 | 50 | 61 | 3.0 | 9.0 | 0.00 | 0.00 | 0.00 | 77 | 1013.5 |
| 20260506225707 | 50 | 49 | 3.0 | 9.0 | 0.00 | 0.00 | 0.00 | 77 | 1013.5 |
| 20260506224706 | 50 | 28 | 4.0 | 9.0 | 0.00 | 0.00 | 0.00 | 76 | 1013.4 |
| 20260506224210 | 50 | 40 | 3.0 | 9.0 | 0.00 | 0.00 | 0.00 | 75 | 1013.4 |
| 20260506223219 | 50 | 55 | 3.0 | 8.0 | 0.00 | 0.00 | 0.00 | 74 | 1013.3 |
| 20260506222709 | 50 | 15 | 3.0 | 8.0 | 0.00 | 0.00 | 0.00 | 74 | 1013.3 |
| 20260506221719 | 51 | 23 | 2.0 | 9.0 | 0.00 | 0.00 | 0.00 | 73 | 1013.2 |
| 20260506221220 | 51 | 346 | 3.0 | 7.0 | 0.00 | 0.00 | 0.00 | 72 | 1013.2 |
| 20260506220708 | 51 | 47 | 2.0 | 7.0 | 0.00 | 0.00 | 0.00 | 72 | 1013.1 |
| 20260506220211 | 51 | 65 | 2.0 | 7.0 | 0.00 | 0.00 | 0.00 | 71 | 1013.1 |
| 20260506215713 | 51 | 32 | 2.0 | 8.0 | 0.00 | 0.00 | 0.00 | 71 | 1013.1 |
| 20260506215218 | 51 | 342 | 2.0 | 9.0 | 0.00 | 0.00 | 0.00 | 71 | 1013.1 |
| 20260506214710 | 51 | 21 | 2.0 | 9.0 | 0.00 | 0.00 | 0.00 | 70 | 1013.1 |
| 20260506214210 | 51 | 355 | 3.0 | 9.0 | 0.00 | 0.00 | 0.00 | 70 | 1013.0 |
| 20260506213719 | 52 | 355 | 2.0 | 7.0 | 0.00 | 0.00 | 0.00 | 70 | 1013.0 |
| 20260506213214 | 52 | 25 | 2.0 | 7.0 | 0.00 | 0.00 | 0.00 | 69 | 1013.0 |
| 20260506212708 | 52 | 52 | 2.0 | 7.0 | 0.00 | 0.00 | 0.00 | 69 | 1013.0 |
| 20260506212213 | 52 | 57 | 2.0 | 9.0 | 0.00 | 0.00 | 0.00 | 68 | 1012.9 |
| 20260506211712 | 52 | 34 | 3.0 | 9.0 | 0.00 | 0.00 | 0.00 | 68 | 1012.8 |
| 20260506211217 | 52 | 38 | 3.0 | 7.0 | 0.00 | 0.00 | 0.00 | 67 | 1012.8 |
| 20260506210231 | 53 | 0 | 2.0 | 8.0 | 0.00 | 0.00 | 0.00 | 66 | 1012.7 |
| 20260506205719 | 53 | 61 | 2.0 | 8.0 | 0.00 | 0.00 | 0.00 | 66 | 1012.7 |
| 20260506205219 | 53 | 51 | 2.0 | 9.0 | 0.00 | 0.00 | 0.00 | 66 | 1012.7 |
| 20260506204718 | 53 | 65 | 2.0 | 9.0 | 0.00 | 0.00 | 0.00 | 65 | 1012.7 |
| 20260506204205 | 53 | 50 | 2.0 | 9.0 | 0.00 | 0.00 | 0.00 | 65 | 1012.7 |
| 20260506202709 | 54 | 355 | 4.0 | 11.0 | 0.00 | 0.00 | 0.00 | 64 | 1012.5 |
| 20260506201708 | 54 | 41 | 5.0 | 11.0 | 0.00 | 0.00 | 0.00 | 63 | 1012.4 |
| 20260506201219 | 55 | 78 | 4.0 | 10.0 | 0.00 | 0.00 | 0.00 | 64 | 1012.3 |
| 20260506200719 | 55 | 71 | 3.0 | 10.0 | 0.00 | 0.00 | 0.00 | 64 | 1012.4 |
| 20260506200209 | 55 | 60 | 4.0 | 11.0 | 0.00 | 0.00 | 0.00 | 64 | 1012.3 |
| 20260506195716 | 55 | 36 | 4.0 | 11.0 | 0.00 | 0.00 | 0.00 | 64 | 1012.2 |
| 20260506194715 | 55 | 67 | 3.0 | 8.0 | 0.00 | 0.00 | 0.00 | 65 | 1012.1 |
| 20260506193711 | 55 | 29 | 2.0 | 10.0 | 0.00 | 0.00 | 0.00 | 66 | 1012.0 |
| 20260506193207 | 55 | 0 | 3.0 | 10.0 | 0.00 | 0.00 | 0.00 | 66 | 1012.0 |
| 20260506192712 | 55 | 76 | 5.0 | 10.0 | 0.00 | 0.00 | 0.00 | 66 | 1011.9 |
| 20260506192208 | 55 | 49 | 4.0 | 10.0 | 0.00 | 0.00 | 0.00 | 66 | 1011.9 |
| 20260506191717 | 55 | 56 | 3.0 | 9.0 | 0.00 | 0.00 | 0.00 | 67 | 1011.7 |
| 20260506191211 | 56 | 44 | 3.0 | 9.0 | 0.00 | 0.00 | 0.00 | 68 | 1011.7 |
| 20260506190735 | 56 | 21 | 2.0 | 9.0 | 0.00 | 0.00 | 0.00 | 67 | 1011.7 |
| 20260506190206 | 56 | 16 | 2.0 | 9.0 | 0.00 | 0.00 | 0.00 | 67 | 1011.6 |
| 20260506185706 | 56 | 28 | 2.0 | 9.0 | 0.00 | 0.00 | 0.00 | 65 | 1011.6 |
| 20260506185206 | 56 | 32 | 1.0 | 5.0 | 0.00 | 0.00 | 0.00 | 64 | 1011.4 |
| 20260506184713 | 56 | 27 | 2.0 | 7.0 | 0.00 | 0.00 | 0.00 | 64 | 1011.4 |
| 20260506184219 | 56 | 42 | 2.0 | 7.0 | 0.00 | 0.00 | 0.00 | 65 | 1011.3 |
| 20260506183710 | 56 | 39 | 2.0 | 7.0 | 0.00 | 0.00 | 0.00 | 65 | 1011.3 |
| 20260506183218 | 56 | 28 | 2.0 | 8.0 | 0.00 | 0.00 | 0.00 | 66 | 1011.2 |
| 20260506182710 | 55 | 55 | 2.0 | 8.0 | 0.00 | 0.00 | 0.00 | 67 | 1011.1 |
| 20260506182215 | 55 | 334 | 2.0 | 8.0 | 0.00 | 0.00 | 0.00 | 69 | 1011.0 |
| 20260506181717 | 55 | 5 | 2.0 | 10.0 | 0.00 | 0.00 | 0.00 | 70 | 1011.0 |
| 20260506180711 | 55 | 345 | 4.0 | 10.0 | 0.00 | 0.00 | 0.00 | 71 | 1010.9 |
| 20260506180212 | 55 | 40 | 4.0 | 10.0 | 0.00 | 0.00 | 0.00 | 71 | 1010.8 |
| 20260506175717 | 55 | 11 | 5.0 | 12.0 | 0.00 | 0.00 | 0.00 | 71 | 1010.8 |
| 20260506175212 | 55 | 335 | 5.0 | 12.0 | 0.00 | 0.00 | 0.00 | 72 | 1010.7 |
| 20260506174712 | 55 | 15 | 4.0 | 12.0 | 0.00 | 0.00 | 0.00 | 72 | 1010.7 |
| 20260506174218 | 55 | 30 | 5.0 | 11.0 | 0.00 | 0.00 | 0.00 | 72 | 1010.6 |
| 20260506173209 | 55 | 342 | 5.0 | 12.0 | 0.00 | 0.00 | 0.00 | 73 | 1010.5 |
| 20260506172211 | 55 | 336 | 5.0 | 13.0 | 0.00 | 0.00 | 0.00 | 73 | 1010.5 |
| 20260506171712 | 55 | 5 | 6.0 | 14.0 | 0.00 | 0.00 | 0.00 | 73 | 1010.5 |
| 20260506170707 | 55 | 334 | 6.0 | 15.0 | 0.00 | 0.00 | 0.00 | 73 | 1010.4 |
| 20260506165705 | 55 | 336 | 6.0 | 12.0 | 0.00 | 0.00 | 0.00 | 72 | 1010.3 |
| 20260506165207 | 55 | 13 | 6.0 | 12.0 | 0.00 | 0.00 | 0.00 | 72 | 1010.3 |
| 20260506164715 | 55 | 17 | 5.0 | 12.0 | 0.00 | 0.00 | 0.00 | 72 | 1010.3 |
| 20260506164210 | 55 | 338 | 5.0 | 12.0 | 0.00 | 0.00 | 0.00 | 72 | 1010.2 |
| 20260506163218 | 55 | 61 | 5.0 | 16.0 | 0.00 | 0.00 | 0.00 | 72 | 1010.2 |
| 20260506162717 | 55 | 29 | 6.0 | 16.0 | 0.00 | 0.00 | 0.00 | 72 | 1010.2 |
| 20260506162224 | 55 | 55 | 6.0 | 13.0 | 0.00 | 0.00 | 0.00 | 72 | 1010.2 |
| 20260506161713 | 55 | 335 | 7.0 | 13.0 | 0.00 | 0.00 | 0.00 | 72 | 1010.2 |
| 20260506161217 | 55 | 328 | 6.0 | 13.0 | 0.00 | 0.00 | 0.00 | 72 | 1010.2 |
| 20260506160714 | 55 | 5 | 5.0 | 13.0 | 0.00 | 0.00 | 0.00 | 71 | 1010.2 |
| 20260506160222 | 55 | 329 | 6.0 | 15.0 | 0.00 | 0.00 | 0.00 | 71 | 1010.2 |
| 20260506155717 | 55 | 348 | 8.0 | 16.0 | 0.00 | 0.00 | 0.00 | 71 | 1010.1 |
| 20260506154719 | 56 | 350 | 8.0 | 18.0 | 0.00 | 0.00 | 0.00 | 71 | 1010.1 |
| 20260506154218 | 56 | 334 | 9.0 | 18.0 | 0.00 | 0.00 | 0.00 | 71 | 1010.2 |
| 20260506153715 | 56 | 319 | 9.0 | 18.0 | 0.00 | 0.00 | 0.00 | 70 | 1010.2 |
| 20260506153216 | 56 | 349 | 6.0 | 15.0 | 0.00 | 0.00 | 0.00 | 70 | 1010.2 |
| 20260506152710 | 56 | 17 | 8.0 | 15.0 | 0.00 | 0.00 | 0.00 | 70 | 1010.2 |
| 20260506152206 | 56 | 5 | 9.0 | 15.0 | 0.00 | 0.00 | 0.00 | 69 | 1010.1 |
| 20260506151206 | 57 | 343 | 7.0 | 17.0 | 0.00 | 0.00 | 0.00 | 69 | 1010.0 |
| 20260506150731 | 57 | 343 | 7.0 | 17.0 | 0.00 | 0.00 | 0.00 | 69 | 1010.0 |
| 20260506150210 | 57 | 327 | 7.0 | 16.0 | 0.00 | 0.00 | 0.00 | 68 | 1010.0 |
| 20260506145713 | 58 | 327 | 6.0 | 16.0 | 0.00 | 0.00 | 0.00 | 68 | 1010.1 |
| 20260506145209 | 57 | 0 | 7.0 | 20.0 | 0.00 | 0.00 | 0.00 | 67 | 1010.0 |
| 20260506143713 | 57 | 341 | 6.0 | 17.0 | 0.00 | 0.00 | 0.00 | 68 | 1009.9 |
| 20260506143217 | 57 | 346 | 7.0 | 17.0 | 0.00 | 0.00 | 0.00 | 69 | 1009.9 |
| 20260506142706 | 58 | 338 | 6.0 | 17.0 | 0.00 | 0.00 | 0.00 | 67 | 1010.0 |
| 20260506142216 | 58 | 355 | 5.0 | 17.0 | 0.00 | 0.00 | 0.00 | 68 | 1010.0 |
| 20260506141217 | 58 | 0 | 7.0 | 17.0 | 0.00 | 0.00 | 0.00 | 68 | 1010.0 |
| 20260506140713 | 59 | 5 | 6.0 | 17.0 | 0.00 | 0.00 | 0.00 | 68 | 1010.0 |
| 20260506140212 | 58 | 307 | 8.0 | 21.0 | 0.00 | 0.00 | 0.00 | 69 | 1010.0 |
| 20260506135711 | 58 | 24 | 9.0 | 21.0 | 0.00 | 0.00 | 0.00 | 68 | 1010.0 |
| 20260506135210 | 58 | 19 | 8.0 | 21.0 | 0.00 | 0.00 | 0.00 | 69 | 1010.0 |
| 20260506134710 | 59 | 355 | 7.0 | 16.0 | 0.00 | 0.00 | 0.00 | 69 | 1009.9 |
| 20260506134212 | 58 | 322 | 7.0 | 16.0 | 0.00 | 0.00 | 0.00 | 70 | 1009.9 |
| 20260506133710 | 57 | 28 | 8.0 | 17.0 | 0.00 | 0.00 | 0.00 | 71 | 1009.9 |
| 20260506133212 | 57 | 333 | 7.0 | 17.0 | 0.00 | 0.00 | 0.00 | 72 | 1010.0 |
| 20260506132216 | 57 | 15 | 7.0 | 17.0 | 0.00 | 0.00 | 0.00 | 73 | 1009.9 |
| 20260506130712 | 57 | 12 | 6.0 | 16.0 | 0.00 | 0.00 | 0.00 | 74 | 1010.0 |
| 20260506130212 | 56 | 308 | 7.0 | 18.0 | 0.00 | 0.00 | 0.00 | 74 | 1009.9 |
| 20260506125705 | 56 | 340 | 8.0 | 18.0 | 0.00 | 0.00 | 0.00 | 74 | 1009.7 |
| 20260506125218 | 57 | 345 | 7.0 | 17.0 | 0.00 | 0.00 | 0.00 | 72 | 1009.8 |
| 20260506124214 | 57 | 344 | 7.0 | 17.0 | 0.00 | 0.00 | 0.00 | 73 | 1009.7 |
| 20260506123715 | 57 | 319 | 7.0 | 17.0 | 0.00 | 0.00 | 0.00 | 71 | 1009.7 |
| 20260506123214 | 58 | 0 | 7.0 | 15.0 | 0.00 | 0.00 | 0.00 | 69 | 1009.6 |
| 20260506122712 | 57 | 283 | 7.0 | 16.0 | 0.00 | 0.00 | 0.00 | 71 | 1009.6 |
| 20260506122206 | 57 | 326 | 7.0 | 16.0 | 0.00 | 0.00 | 0.00 | 70 | 1009.6 |
| 20260506121219 | 57 | 279 | 7.0 | 17.0 | 0.00 | 0.00 | 0.00 | 72 | 1009.7 |
| 20260506120716 | 56 | 340 | 8.0 | 17.0 | 0.00 | 0.00 | 0.00 | 72 | 1009.6 |
| 20260506120211 | 57 | 312 | 8.0 | 17.0 | 0.00 | 0.00 | 0.00 | 70 | 1009.5 |
| 20260506115711 | 57 | 324 | 7.0 | 16.0 | 0.00 | 0.00 | 0.00 | 70 | 1009.5 |
| 20260506115215 | 57 | 355 | 6.0 | 16.0 | 0.00 | 0.00 | 0.00 | 70 | 1009.6 |
| 20260506114712 | 56 | 5 | 7.0 | 16.0 | 0.00 | 0.00 | 0.00 | 69 | 1009.6 |
| 20260506114209 | 56 | 5 | 8.0 | 16.0 | 0.00 | 0.00 | 0.00 | 69 | 1009.6 |
| 20260506113717 | 56 | 346 | 6.0 | 14.0 | 0.00 | 0.00 | 0.00 | 69 | 1009.6 |
| 20260506112712 | 56 | 18 | 6.0 | 17.0 | 0.00 | 0.00 | 0.00 | 72 | 1009.5 |
| 20260506112219 | 56 | 346 | 7.0 | 17.0 | 0.00 | 0.00 | 0.00 | 71 | 1009.5 |
| 20260506111714 | 56 | 348 | 8.0 | 17.0 | 0.00 | 0.00 | 0.00 | 70 | 1009.5 |
| 20260506111207 | 57 | 28 | 7.0 | 17.0 | 0.00 | 0.00 | 0.00 | 69 | 1009.6 |
| 20260506110714 | 57 | 53 | 6.0 | 15.0 | 0.00 | 0.00 | 0.00 | 70 | 1009.6 |
| 20260506105711 | 57 | 30 | 7.0 | 15.0 | 0.00 | 0.00 | 0.00 | 71 | 1009.5 |
| 20260506105211 | 57 | 331 | 7.0 | 13.0 | 0.00 | 0.00 | 0.00 | 71 | 1009.5 |
| 20260506104719 | 57 | 11 | 7.0 | 17.0 | 0.00 | 0.00 | 0.00 | 71 | 1009.4 |
| 20260506104208 | 57 | 355 | 6.0 | 17.0 | 0.00 | 0.00 | 0.00 | 71 | 1009.5 |
| 20260506103712 | 57 | 355 | 6.0 | 19.0 | 0.00 | 0.00 | 0.00 | 72 | 1009.5 |
| 20260506103205 | 57 | 332 | 7.0 | 19.0 | 0.00 | 0.00 | 0.00 | 71 | 1009.5 |
| 20260506101706 | 58 | 0 | 7.0 | 14.0 | 0.00 | 0.00 | 0.00 | 70 | 1009.4 |
| 20260506101218 | 58 | 329 | 6.0 | 14.0 | 0.00 | 0.00 | 0.00 | 69 | 1009.4 |
| 20260506100706 | 58 | 15 | 6.0 | 14.0 | 0.00 | 0.00 | 0.00 | 68 | 1009.4 |
| 20260506095706 | 58 | 304 | 6.0 | 16.0 | 0.00 | 0.00 | 0.00 | 69 | 1009.3 |